Regional Weather Roundup
Issued by NWS

Home | Current Version | Previous Version | Text Only | Print | Product List | Glossary Off
Versions: 1 2 3 4 5 6 7 8 9 10 11 12 13 14 15 16 17 18 19 20 21 22 23 24 25 26 27 28 29 30 31 32 33 34 35 36 37 38 39 40 41 42 43 44 45 46 47 48 49 50

000
ASUS43 KOAX 250102
RWRNE

WEATHER ROUNDUP FOR NEBRASKA
NATIONAL WEATHER SERVICE OMAHA NE
800 PM CDT SUN JUL 24 2016

NOTES: SATELLITE DATA IS BEING USED TO AUGMENT CLOUD COVER ABOVE
       12000 FEET.
       "FAIR" INDICATES FEW OR NO CLOUDS BELOW 12,000 FEET WITH NO
       SIGNIFICANT WEATHER AND/OR OBSTRUCTIONS TO VISIBILITY.

  * THESE STATIONS DO NOT REPORT WEATHER SUCH AS RAIN...SNOW OR FOG.

NEZ001>004-019>022-054>056-250200-
NEBRASKA PANHANDLE

CITY           SKY/WX    TMP DP  RH WIND       PRES   REMARKS
SCOTTSBLUFF    CLOUDY    80  53  39 E17G23    30.10S
ALLIANCE       SUNNY     78  52  40 SE18G25   30.12S
CHADRON        SUNNY     83  49  30 S15       30.07R
SIDNEY         CLOUDY    71  56  58 S23G33    30.13R
$$

NEZ057>060-069>072-079>082-250200-
SOUTHWEST NEBRASKA

CITY           SKY/WX    TMP DP  RH WIND       PRES   REMARKS
NORTH PLATTE   SUNNY     75  65  70 E7        30.11R
IMPERIAL       CLOUDY    79  58  48 NE7       30.16R
LEXINGTON      MOSUNNY   79  63  57 NE7       30.09R
MCCOOK         SUNNY     81  59  47 E16       30.07R
OGALLALA       CLOUDY    78  58  51 SE12      30.11F
$$

NEZ005>010-023>029-035>040-094-250200-
NORTH CENTRAL NEBRASKA

CITY           SKY/WX    TMP DP  RH WIND       PRES   REMARKS
VALENTINE      PTSUNNY   85  47  26 SE8       30.09R
BROKEN BOW     SUNNY     76  63  64 SE7       30.10R
O`NEILL        CLEAR     79  59  50 CALM      30.08R
ORD            CLEAR     80  62  54 E5        30.07R
THEDFORD       MOSUNNY   81  56  42 SE7       30.12R
$$

NEZ041-046>049-061>064-073>077-083>087-250200-
SOUTH CENTRAL NEBRASKA

CITY           SKY/WX    TMP DP  RH WIND       PRES   REMARKS
GRAND ISLAND   CLEAR     79  64  60 NE8       30.07R
AURORA         CLEAR     80  66  63 NE5       30.06R
HASTINGS       CLEAR     80  63  55 NE9       30.06R
HEBRON         CLEAR     80  63  55 E7        30.02S
HOLDREGE       CLEAR     79  64  58 NE7       30.08R
KEARNEY *      CLEAR     79  64  61 E8        30.08S
YORK           CLEAR     79  68  69 N6        30.05R
$$

NEZ011>018-030>034-042>045-250200-
NORTHEAST NEBRASKA

CITY           SKY/WX    TMP DP  RH WIND       PRES   REMARKS
NORFOLK        CLEAR     79  59  50 N9        30.05R
ALBION         CLEAR     77  65  66 CALM      30.07R
BLAIR          CLOUDY    81  69  67 CALM      30.02R
FREMONT        PTCLDY    81  66  60 N5        30.03R
TEKAMAH        PTCLDY    82  66  58 N6        30.02R
WAYNE          CLEAR     74  65  73 CALM      30.05S
$$

NEZ050>053-065>068-078-088>093-250200-
SOUTHEAST NEBRASKA

CITY           SKY/WX    TMP DP  RH WIND       PRES   REMARKS
LINCOLN        CLEAR     82  66  58 NE8       30.01S
OMAHA EPPLEY   CLOUDY    83  67  58 E6        30.00F
BEATRICE       PTCLDY    80  65  60 E5        30.02R
FALLS CITY     CLOUDY    77  70  79 E7        29.98S
NEBRASKA CITY  CLOUDY    78  65  63 CALM      29.99R
PLATTSMOUTH    CLOUDY    79  69  71 NE6       30.00F
$$

NEZ044-045-051>053-067-250200-
OMAHA AREA

CITY           SKY/WX    TMP DP  RH WIND       PRES   REMARKS
OMAHA EPPLEY   CLOUDY    83  67  58 E6        30.00F
BLAIR          CLOUDY    81  69  67 CALM      30.02R
FREMONT        PTCLDY    81  66  60 N5        30.03R
MILLARD        CLEAR     83  65  54 CALM      30.01R
OFFUTT AFB     CLOUDY    81  67  62 NE5       30.00S
PLATTSMOUTH    CLOUDY    79  69  71 NE6       30.00F
WAHOO          FAIR      80  70  72 N3        30.02R
$$




USA.gov is the U.S. government's official web portal to all federal, state and local government web resources and services.